Weather History for McComb, MS

Change the Weather History Date:

Saturday, October 4, 2014

  Actual Average Record
Temperature  
Mean Temperature 60 °F -  
Max Temperature 71 °F 83 °F 93 °F (1986)
Min Temperature 50 °F 56 °F 42 °F (1974)
Degree Days  
Heating Degree Days 4    
Growing Degree Days 10 (Base 50)    
Moisture  
Dew Point 43 °F    
Average Humidity 60    
Maximum Humidity 87    
Minimum Humidity 25    
Precipitation  
Precipitation 0.00 in - - ()
Sea Level Pressure  
Sea Level Pressure 30.09 in    
Wind  
Wind Speed 8 mph (NNW)    
Max Wind Speed 15 mph    
Max Gust Speed 23 mph    
Visibility 10 miles    
Events      
Averages and records for this station are not official NWS values.
T = Trace of Precipitation, MM = Missing Value Source: NWS Daily Summary

Daily Weather History Graph

Daily Weather History Graph

Search for Another Location

Airport:

Trip Planner

Search our weather history database for the weather conditions in past years. The results will help you decide how hot, cold, wet, or windy it might be!

Date:

Astronomy

Oct. 04, 2014 Rise Set
Actual Time 6:57 AM CDT 6:43 PM CDT
Civil Twilight 6:33 AM CDT 7:07 PM CDT
Nautical Twilight 6:05 AM CDT 7:35 PM CDT
Astronomical Twilight 5:37 AM CDT 8:03 PM CDT
Moon 4:06 PM CDT (10/4) 2:41 AM CDT (10/4)
Length of Visible Light 12h 34m
Length of Day
11h 45m
Waxing Gibbous, 81% of the Moon is Illuminated
Oct 4
Waxing Gibbous
Oct 8
Full
Oct 15
Last Quarter
Oct 23
New
Oct 30
First Quarter

Hourly Weather History & Observations

Time (CDT) Temp. Dew Point Humidity Pressure Visibility Wind Dir Wind Speed Gust Speed Precip Events Conditions
12:53 AM 61.0 °F 57.0 °F 87% 30.07 in 10.0 mi NW 3.5 mph - N/A   Clear
1:53 AM 62.1 °F 57.0 °F 84% 30.07 in 10.0 mi NW 8.1 mph - N/A   Clear
2:53 AM 61.0 °F 55.0 °F 81% 30.09 in 10.0 mi NNW 9.2 mph - N/A   Clear
3:53 AM 59.0 °F 52.0 °F 78% 30.09 in 10.0 mi NNW 9.2 mph - N/A   Clear
4:53 AM 57.9 °F 52.0 °F 81% 30.09 in 10.0 mi NNW 11.5 mph - N/A   Clear
5:53 AM 57.0 °F 48.9 °F 74% 30.12 in 10.0 mi NNW 11.5 mph - N/A   Clear
6:53 AM 54.0 °F 48.0 °F 80% 30.13 in 10.0 mi North 8.1 mph - N/A   Clear
7:53 AM 54.0 °F 46.0 °F 75% 30.14 in 10.0 mi North 11.5 mph 17.3 mph N/A   Clear
8:53 AM 55.9 °F 39.9 °F 55% 30.16 in 10.0 mi North 10.4 mph - N/A   Clear
9:53 AM 57.9 °F 37.0 °F 46% 30.17 in 10.0 mi NNE 11.5 mph 18.4 mph N/A   Clear
10:53 AM 61.0 °F 36.0 °F 39% 30.16 in 10.0 mi North 12.7 mph 18.4 mph N/A   Clear
11:53 AM 64.9 °F 35.1 °F 33% 30.14 in 10.0 mi NNW 15.0 mph 21.9 mph N/A   Clear
12:53 PM 66.9 °F 34.0 °F 30% 30.12 in 10.0 mi North 10.4 mph 23.0 mph N/A   Clear
1:53 PM 69.1 °F 33.1 °F 26% 30.10 in 10.0 mi North 11.5 mph - N/A   Clear
2:53 PM 70.0 °F 34.0 °F 27% 30.08 in 10.0 mi WNW 10.4 mph 21.9 mph N/A   Clear
3:53 PM 71.1 °F 33.1 °F 25% 30.07 in 10.0 mi NNW 10.4 mph 18.4 mph N/A   Clear
4:53 PM 70.0 °F 35.1 °F 28% 30.06 in 10.0 mi NW 9.2 mph - N/A   Clear
5:53 PM 68.0 °F 35.1 °F 30% 30.05 in 10.0 mi NW 5.8 mph - N/A   Clear
6:53 PM 61.0 °F 44.1 °F 54% 30.04 in 10.0 mi NNW 3.5 mph - N/A   Clear
7:53 PM 55.9 °F 46.9 °F 72% 30.05 in 10.0 mi Calm Calm - N/A   Clear
8:53 PM 54.0 °F 46.0 °F 75% 30.06 in 10.0 mi Calm Calm - N/A   Clear
9:53 PM 52.0 °F 46.0 °F 80% 30.06 in 10.0 mi Calm Calm - N/A   Clear
10:53 PM 50.0 °F 46.0 °F 86% 30.06 in 10.0 mi Calm Calm - N/A   Clear
11:53 PM 50.0 °F 46.0 °F 86% 30.06 in 10.0 mi Calm Calm - N/A   Clear